Location: Unspecified
(47.6578°N, 23.5640°E)
Time: 02:03:07
(UTC+03:00)

ISS - Pass Details

Date: 01 February 2018
Orbit: 408 x 418 km, 51.6° (Epoch: 16 June)

Event Time Altitude Azimuth Distance (km) Brightness Sun altitude
Rises 19:12:29 0° 287° (WNW) 2,371 1.3 -18.0°
Reaches altitude 10° 19:14:38 10° 294° (WNW) 1,514 0.0 -18.3°
Maximum altitude 19:17:54 44° 8° (N) 605 -3.1 -18.9°
Enters shadow 19:18:04 44° 18° (NNE) 609 -3.2 -18.9°
